• en Belgique
  • Liste des pays
  • À 7 jours
  • Température de l'eau
  • Carte satellitaire
  • Carte météo
  • Widgets météo
  • user-avatar
    Se connecter

    Météo par heure à Andenne

    Ce jour, 21 Février, Mercredi

    Heure Température Précipitation Vent Pression Humidité
    00:00 -3°C° 0 mm 2 m/s 755 mmHg 84%
    01:00 -3°C° 0 mm 2 m/s 756 mmHg 85%
    02:00 -3°C° 0 mm 2 m/s 756 mmHg 86%
    03:00 -3°C° 0 mm 2 m/s 756 mmHg 87%
    04:00 -3°C° 0 mm 2 m/s 756 mmHg 87%
    05:00 -3°C° 0 mm 2 m/s 756 mmHg 87%
    06:00 -4°C° 0 mm 3 m/s 757 mmHg 90%
    07:00 -2°C° 0 mm 3 m/s 757 mmHg 83%
    08:00 -1°C° 0 mm 3 m/s 757 mmHg 76%
    09:00 -1°C° 0 mm 4 m/s 757 mmHg 69%
    10:00 0°C° 0 mm 4 m/s 757 mmHg 65%
    11:00 +1°C° 0 mm 4 m/s 757 mmHg 60%
    12:00 +3°C° 0 mm 4 m/s 757 mmHg 56%
    13:00 +3°C° 0 mm 4 m/s 756 mmHg 57%
    14:00 +3°C° 0 mm 4 m/s 756 mmHg 57%
    15:00 +4°C° 0 mm 4 m/s 756 mmHg 57%
    16:00 +1°C° 0 mm 4 m/s 756 mmHg 63%
    17:00 +1°C° 0 mm 3 m/s 756 mmHg 68%
    18:00 -1°C° 0 mm 3 m/s 756 mmHg 74%
    19:00 -1°C° 0 mm 3 m/s 756 mmHg 76%
    20:00 -2°C° 0 mm 3 m/s 756 mmHg 77%
    21:00 -2°C° 0 mm 3 m/s 756 mmHg 79%
    22:00 -2°C° 0 mm 3 m/s 756 mmHg 80%
    23:00 -4°C° 0 mm 3 m/s 756 mmHg 81%

    Demain, 22 Février, Jeudi

    Heure Température Précipitation Vent Pression Humidité
    00:00 -4°C° 0 mm 3 m/s 756 mmHg 81%
    01:00 -4°C° 0 mm 3 m/s 756 mmHg 81%
    02:00 -4°C° 0 mm 3 m/s 756 mmHg 81%
    03:00 -4°C° 0 mm 3 m/s 756 mmHg 81%
    04:00 -4°C° 0 mm 3 m/s 756 mmHg 80%
    05:00 -4°C° 0 mm 4 m/s 756 mmHg 79%
    06:00 -4°C° 0 mm 4 m/s 756 mmHg 78%
    07:00 -3°C° 0 mm 4 m/s 756 mmHg 71%
    08:00 -2°C° 0 mm 5 m/s 756 mmHg 64%
    09:00 -1°C° 0 mm 5 m/s 756 mmHg 57%
    10:00 -1°C° 0 mm 6 m/s 756 mmHg 52%
    11:00 +1°C° 0 mm 6 m/s 756 mmHg 46%
    12:00 +2°C° 0 mm 6 m/s 756 mmHg 41%
    13:00 +2°C° 0 mm 6 m/s 755 mmHg 42%
    14:00 +2°C° 0 mm 6 m/s 755 mmHg 43%
    15:00 +2°C° 0 mm 6 m/s 755 mmHg 44%
    16:00 +1°C° 0 mm 5 m/s 755 mmHg 49%
    17:00 -1°C° 0 mm 4 m/s 755 mmHg 55%
    18:00 -2°C° 0 mm 4 m/s 755 mmHg 60%
    19:00 -2°C° 0 mm 4 m/s 755 mmHg 63%
    20:00 -3°C° 0 mm 4 m/s 755 mmHg 65%
    21:00 -3°C° 0 mm 4 m/s 756 mmHg 67%
    22:00 -3°C° 0 mm 4 m/s 756 mmHg 68%
    23:00 -4°C° 0 mm 4 m/s 755 mmHg 70%

    Après-demain, 23 Février, Vendredi

    Heure Température Précipitation Vent Pression Humidité
    00:00 -4°C° 0 mm 4 m/s 755 mmHg 71%
    01:00 -4°C° 0 mm 4 m/s 755 mmHg 72%
    02:00 -4°C° 0 mm 4 m/s 755 mmHg 72%
    03:00 -5°C° 0 mm 4 m/s 755 mmHg 73%
    04:00 -5°C° 0 mm 4 m/s 755 mmHg 72%
    05:00 -5°C° 0 mm 4 m/s 755 mmHg 72%
    06:00 -5°C° 0 mm 4 m/s 755 mmHg 71%
    07:00 -5°C° 0 mm 5 m/s 755 mmHg 64%
    08:00 -4°C° 0 mm 5 m/s 755 mmHg 57%
    09:00 -3°C° 0 mm 6 m/s 755 mmHg 50%
    10:00 -2°C° 0 mm 6 m/s 755 mmHg 45%
    11:00 -1°C° 0 mm 6 m/s 755 mmHg 41%
    12:00 +1°C° 0 mm 6 m/s 754 mmHg 36%
    13:00 +1°C° 0 mm 6 m/s 754 mmHg 36%
    14:00 +1°C° 0 mm 6 m/s 754 mmHg 36%
    15:00 +1°C° 0 mm 6 m/s 753 mmHg 36%
    16:00 0°C° 0 mm 5 m/s 754 mmHg 39%
    17:00 -1°C° 0 mm 4 m/s 754 mmHg 42%
    18:00 -3°C° 0 mm 4 m/s 754 mmHg 46%
    19:00 -3°C° 0 mm 4 m/s 754 mmHg 46%
    20:00 -3°C° 0 mm 4 m/s 754 mmHg 46%
    21:00 -4°C° 0 mm 4 m/s 754 mmHg 46%
    22:00 -4°C° 0 mm 4 m/s 754 mmHg 48%
    23:00 -4°C° 0 mm 4 m/s 754 mmHg 49%

    24 Février, Samedi

    Heure Température Précipitation Vent Pression Humidité
    00:00 -4°C° 0 mm 4 m/s 754 mmHg 51%
    01:00 -4°C° 0 mm 4 m/s 754 mmHg 52%
    02:00 -4°C° 0 mm 4 m/s 754 mmHg 53%
    03:00 -4°C° 0 mm 4 m/s 754 mmHg 54%
    04:00 -4°C° 0 mm 4 m/s 754 mmHg 53%
    05:00 -5°C° 0 mm 5 m/s 754 mmHg 53%
    06:00 -5°C° 0 mm 5 m/s 754 mmHg 52%
    07:00 -4°C° 0 mm 5 m/s 754 mmHg 47%
    08:00 -3°C° 0 mm 6 m/s 754 mmHg 43%
    09:00 -2°C° 0 mm 6 m/s 754 mmHg 38%
    10:00 0°C° 0 mm 7 m/s 754 mmHg 36%
    11:00 +2°C° 0 mm 7 m/s 754 mmHg 34%
    12:00 +3°C° 0 mm 7 m/s 754 mmHg 32%
    13:00 +3°C° 0 mm 7 m/s 753 mmHg 34%
    14:00 +4°C° 0 mm 7 m/s 753 mmHg 35%
    15:00 +4°C° 0 mm 7 m/s 753 mmHg 37%
    16:00 +2°C° 0 mm 6 m/s 753 mmHg 43%
    17:00 +1°C° 0 mm 6 m/s 754 mmHg 49%
    18:00 -2°C° 0 mm 6 m/s 754 mmHg 54%
    19:00 -2°C° 0 mm 6 m/s 754 mmHg 54%
    20:00 -3°C° 0 mm 6 m/s 755 mmHg 53%
    21:00 -4°C° 0 mm 6 m/s 755 mmHg 52%
    22:00 -4°C° 0 mm 6 m/s 755 mmHg 50%
    23:00 -4°C° 0 mm 6 m/s 755 mmHg 47%

    25 Février, Dimanche

    Heure Température Précipitation Vent Pression Humidité
    00:00 -5°C° 0 mm 6 m/s 756 mmHg 44%
    01:00 -5°C° 0 mm 6 m/s 756 mmHg 42%
    02:00 -5°C° 0 mm 6 m/s 756 mmHg 40%
    03:00 -6°C° 0 mm 6 m/s 756 mmHg 38%
    04:00 -6°C° 0 mm 6 m/s 756 mmHg 37%
    05:00 -6°C° 0 mm 6 m/s 757 mmHg 36%
    06:00 -8°C° 0 mm 6 m/s 757 mmHg 35%
    07:00 -6°C° 0 mm 6 m/s 757 mmHg 33%
    08:00 -6°C° 0 mm 7 m/s 757 mmHg 31%
    09:00 -6°C° 0 mm 7 m/s 758 mmHg 29%
    10:00 -4°C° 0 mm 7 m/s 758 mmHg 27%
    11:00 -3°C° 0 mm 7 m/s 758 mmHg 25%
    12:00 -2°C° 0 mm 7 m/s 758 mmHg 23%
    13:00 -2°C° 0 mm 7 m/s 758 mmHg 23%
    14:00 -2°C° 0 mm 7 m/s 758 mmHg 24%
    15:00 -2°C° 0 mm 6 m/s 758 mmHg 24%
    16:00 -3°C° 0 mm 6 m/s 758 mmHg 27%
    17:00 -4°C° 0 mm 5 m/s 758 mmHg 30%
    18:00 -6°C° 0 mm 5 m/s 759 mmHg 32%
    19:00 -6°C° 0 mm 5 m/s 759 mmHg 33%
    20:00 -7°C° 0 mm 5 m/s 760 mmHg 34%
    21:00 -7°C° 0 mm 5 m/s 760 mmHg 35%
    22:00 -7°C° 0 mm 5 m/s 760 mmHg 37%
    23:00 -7°C° 0 mm 4 m/s 760 mmHg 39%

    26 Février, Lundi

    Heure Température Précipitation Vent Pression Humidité
    00:00 -8°C° 0 mm 4 m/s 760 mmHg 41%
    01:00 -8°C° 0 mm 4 m/s 760 mmHg 42%
    02:00 -8°C° 0 mm 4 m/s 760 mmHg 43%
    03:00 -8°C° 0 mm 4 m/s 760 mmHg 45%
    04:00 -8°C° 0 mm 4 m/s 760 mmHg 45%
    05:00 -9°C° 0 mm 4 m/s 760 mmHg 45%
    06:00 -9°C° 0 mm 4 m/s 760 mmHg 45%
    07:00 -8°C° 0 mm 5 m/s 760 mmHg 42%
    08:00 -7°C° 0 mm 5 m/s 761 mmHg 38%
    09:00 -8°C° 0 mm 6 m/s 761 mmHg 35%
    10:00 -6°C° 0 mm 6 m/s 760 mmHg 33%
    11:00 -5°C° 0 mm 6 m/s 760 mmHg 30%
    12:00 -4°C° 0 mm 6 m/s 760 mmHg 28%
    13:00 -4°C° 0 mm 6 m/s 759 mmHg 29%
    14:00 -4°C° 0 mm 6 m/s 759 mmHg 29%
    15:00 -4°C° 0 mm 6 m/s 758 mmHg 30%
    16:00 -5°C° 0 mm 5 m/s 758 mmHg 35%
    17:00 -5°C° 0 mm 4 m/s 758 mmHg 39%
    18:00 -7°C° 0 mm 4 m/s 758 mmHg 44%
    19:00 -7°C° 0 mm 4 m/s 759 mmHg 46%
    20:00 -6°C° 0 mm 3 m/s 759 mmHg 47%
    21:00 -7°C° 0 mm 3 m/s 759 mmHg 49%
    22:00 -7°C° 0 mm 3 m/s 759 mmHg 50%
    23:00 -7°C° 0 mm 3 m/s 759 mmHg 51%
    Voir plus